Location: Thompson
(55.7500°N, 97.8670°W)
Time: 10:52:07
(UTC-05:00)

Amateur Radio Satellites - All Passes

Search period start: 30 September 2014 10:22
Search period end: 01 October 2014 10:22
Location: Thompson, 55.7500°N, 97.8670°W

Satellite Date Start Highest point End Downlink Frequencies (MHz)
Time Altitude Azimuth
AO-7 30 Sep 10:24:28 10:29:32 18° 342° (NNW) 10:34:35 29.400 - 29.500 MHz
ZACube-1 30 Sep 10:40:28 10:43:12 15° 85° (E) 10:45:53 437.345 MHz
PCSat 30 Sep 10:41:08 10:46:06 38° 118° (ESE) 10:51:06 145.825 MHz
Oscar 11 30 Sep 11:08:57 11:13:10 46° 99° (E) 11:17:20 145.825 FM, Beacon 2401.500 USB
JAS-1B 30 Sep 11:17:19 11:19:16 12° 33° (NNE) 11:21:09 435.800 - 435.900 CW/SSB
FUNcube-1 30 Sep 11:30:46 11:35:05 37° 96° (E) 11:39:17 145.950 - 145.970 MHz USB
Oscar 19 30 Sep 11:35:54 11:38:04 13° 42° (NE) 11:40:14 437.125 CW, 437.150 USB
UKube-1 30 Sep 11:37:31 11:41:56 88° 287° (WNW) 11:46:19 145.840 MHz, 145.915 MHz
MaSat-1 30 Sep 11:38:25 11:40:13 12° 359° (N) 11:41:56 437.345 MHz
RS-15 30 Sep 11:43:15 11:54:15 78° 229° (SW) 12:05:39 29.354 - 29.394 USB, Beacon 29.352 USB
HO-68 30 Sep 11:52:57 12:00:02 63° 298° (WNW) 12:07:06 435.675 MHz FM
Sapphire 30 Sep 11:58:06 12:03:32 84° 313° (NW) 12:09:01 437.095 MHz 1200 baud AX-25 AFSK
Oscar 16 30 Sep 12:14:36 12:18:26 21° 51° (NE) 12:22:17 437.025 USB, Beacon 2401.1428
AO-7 30 Sep 12:14:51 12:19:21 16° 9° (N) 12:23:51 29.400 - 29.500 MHz
ZACube-1 30 Sep 12:15:41 12:20:20 87° 106° (ESE) 12:24:53 437.345 MHz
AO-27 30 Sep 12:23:18 12:26:01 15° 44° (NE) 12:28:44 436.795 MHz FM
PCSat 30 Sep 12:24:00 12:29:22 61° 320° (NW) 12:34:47 145.825 MHz
AO-Echo 30 Sep 12:32:02 12:34:38 15° 47° (NE) 12:37:15 ?
Gurwin Techsat 1B 30 Sep 12:44:19 12:46:25 12° 40° (NE) 12:48:32 435.225 FM
Oscar 11 30 Sep 12:45:26 12:49:13 29° 299° (WNW) 12:52:57 145.825 FM, Beacon 2401.500 USB
JAS-1B 30 Sep 13:02:12 13:08:24 36° 57° (ENE) 13:13:52 435.800 - 435.900 CW/SSB
FUNcube-1 30 Sep 13:07:13 13:11:30 38° 296° (WNW) 13:15:41 145.950 - 145.970 MHz USB
Oscar 19 30 Sep 13:11:21 13:16:17 45° 63° (ENE) 13:21:14 437.125 CW, 437.150 USB
TMSAT-1 30 Sep 13:12:33 13:15:23 15° 44° (NE) 13:18:12 436.925 FM
UKube-1 30 Sep 13:14:40 13:17:34 18° 308° (NW) 13:20:29 145.840 MHz, 145.915 MHz
MaSat-1 30 Sep 13:15:29 13:18:16 18° 23° (NNE) 13:20:49 437.345 MHz
ITAMSAT 1 30 Sep 13:21:58 13:26:27 30° 57° (ENE) 13:30:57 435.822 SSB
Uribyol 2 30 Sep 13:22:56 13:27:30 32° 58° (ENE) 13:32:06 436.500 FM
HO-68 30 Sep 13:41:19 13:46:34 23° 321° (NW) 13:51:50 435.675 MHz FM
Sapphire 30 Sep 13:42:47 13:47:41 33° 337° (NNW) 13:52:36 437.095 MHz 1200 baud AX-25 AFSK
Oscar 16 30 Sep 13:51:58 13:57:11 87° 72° (ENE) 14:02:26 437.025 USB, Beacon 2401.1428
ZACube-1 30 Sep 13:52:54 13:56:11 20° 306° (NW) 13:59:26 437.345 MHz
RS-15 30 Sep 13:56:09 14:05:01 29° 255° (WSW) 14:14:10 29.354 - 29.394 USB, Beacon 29.352 USB
AO-27 30 Sep 13:59:29 14:04:31 53° 65° (ENE) 14:09:35 436.795 MHz FM
AO-7 30 Sep 14:03:00 14:09:35 28° 36° (NE) 14:16:10 29.400 - 29.500 MHz
AO-Echo 30 Sep 14:07:56 14:12:35 64° 69° (ENE) 14:17:19 ?
PCSat 30 Sep 14:09:06 14:13:48 28° 344° (NNW) 14:18:30 145.825 MHz
Gurwin Techsat 1B 30 Sep 14:20:12 14:25:11 43° 62° (ENE) 14:30:12 435.225 FM
Saudisat 1A 30 Sep 14:28:20 14:30:22 13° 112° (ESE) 14:32:25 436.775 MHz
TMSAT-1 30 Sep 14:49:08 14:54:16 53° 65° (ENE) 14:59:27 436.925 FM
Oscar 19 30 Sep 14:50:56 14:55:46 38° 264° (W) 15:00:37 437.125 CW, 437.150 USB
JAS-1B 30 Sep 14:51:45 14:58:56 63° 257° (WSW) 15:05:05 435.800 - 435.900 CW/SSB
MaSat-1 30 Sep 14:51:47 14:55:37 60° 48° (NE) 14:58:53 437.345 MHz
ITAMSAT 1 30 Sep 15:00:34 15:05:42 61° 258° (WSW) 15:10:53 435.822 SSB
Uribyol 2 30 Sep 15:01:40 15:06:47 57° 258° (WSW) 15:11:57 436.500 FM
Sapphire 30 Sep 15:28:07 15:32:36 25° 3° (N) 15:37:05 437.095 MHz 1200 baud AX-25 AFSK
Uosat F 30 Sep 15:29:17 15:33:32 29° 56° (ENE) 15:37:48 435.120 FM
HO-68 30 Sep 15:29:53 15:31:51 11° 347° (NNW) 15:33:48 435.675 MHz FM
Oscar 16 30 Sep 15:33:33 15:37:15 19° 273° (W) 15:40:58 437.025 USB, Beacon 2401.1428
AO-27 30 Sep 15:39:40 15:44:18 32° 266° (W) 15:48:59 436.795 MHz FM
AO-Echo 30 Sep 15:48:05 15:51:50 23° 270° (W) 15:55:38 ?
AO-7 30 Sep 15:52:58 16:01:10 68° 60° (ENE) 16:09:23 29.400 - 29.500 MHz
PCSat 30 Sep 15:54:12 15:58:47 26° 10° (N) 16:03:21 145.825 MHz
Gurwin Techsat 1B 30 Sep 16:00:14 16:05:14 41° 263° (W) 16:10:17 435.225 FM
Saudisat 1A 30 Sep 16:04:47 16:09:09 63° 132° (SE) 16:13:32 436.775 MHz
JAS-2 30 Sep 16:23:23 16:27:20 21° 48° (NE) 16:31:31 435.800 - 435.900 CW/SSB, 435.910 FM
MaSat-1 30 Sep 16:29:05 16:31:36 18° 252° (WSW) 16:33:53 437.345 MHz
TMSAT-1 30 Sep 16:29:43 16:34:28 33° 266° (W) 16:39:15 436.925 FM
ITAMSAT 1 30 Sep 16:44:21 16:46:19 12° 279° (W) 16:48:18 435.822 SSB
Hamsat 30 Sep 16:45:23 16:48:14 18° 55° (NE) 16:51:04 145.90 MHz
Uribyol 2 30 Sep 16:45:53 16:47:26 11° 279° (W) 16:49:00 436.500 FM
JAS-1B 30 Sep 16:47:10 16:50:46 15° 277° (W) 16:54:09 435.800 - 435.900 CW/SSB
KITSAT 1 30 Sep 16:51:27 16:56:38 19° 101° (ESE) 17:01:49 435.175 FM
OPAL 30 Sep 17:07:03 17:09:09 12° 85° (E) 17:11:14 ?
Uosat F 30 Sep 17:07:05 17:12:03 62° 257° (WSW) 17:17:03 435.120 FM
Sapphire 30 Sep 17:12:20 17:17:25 38° 28° (NNE) 17:22:29 437.095 MHz 1200 baud AX-25 AFSK
HO-68 30 Sep 17:14:35 17:16:36 11° 14° (NNE) 17:18:36 435.675 MHz FM
Oscar 10/S400 30 Sep 17:31:58 17:47:38 27° 150° (SSE) 18:20:53 145.825 - 145.975 CW/USB, Beacon 145.810 USB
PCSat 30 Sep 17:38:05 17:43:23 49° 35° (NE) 17:48:39 145.825 MHz
Saudisat 1A 30 Sep 17:44:47 17:48:58 40° 334° (NNW) 17:53:11 436.775 MHz
AO-7 30 Sep 17:46:49 17:54:31 41° 263° (W) 18:02:15 29.400 - 29.500 MHz
JAS-2 30 Sep 18:06:28 18:11:42 86° 72° (ENE) 18:17:23 435.800 - 435.900 CW/SSB, 435.910 FM
Hamsat 30 Sep 18:19:19 18:23:40 89° 254° (WSW) 18:28:00 145.90 MHz
KITSAT 1 30 Sep 18:42:36 18:50:32 63° 124° (SE) 18:58:29 435.175 FM
OPAL 30 Sep 18:43:59 18:49:07 63° 106° (ESE) 18:54:08 ?
Uosat F 30 Sep 18:50:02 18:51:54 12° 278° (W) 18:53:46 435.120 FM
Sapphire 30 Sep 18:55:52 19:01:19 77° 231° (SW) 19:06:45 437.095 MHz 1200 baud AX-25 AFSK
HO-68 30 Sep 18:56:36 19:01:53 23° 39° (NE) 19:07:10 435.675 MHz FM
SO-67 30 Sep 19:18:27 19:21:52 60° 72° (ENE) 19:25:17 435.3500 MHz FM
PCSat 30 Sep 19:21:40 19:26:56 52° 237° (WSW) 19:32:10 145.825 MHz
Saudisat 1A 30 Sep 19:25:46 19:29:31 26° 358° (N) 19:33:17 436.775 MHz
STRAND 1 30 Sep 19:44:45 19:49:16 30° 93° (E) 19:53:46 ?
JAS-2 30 Sep 19:54:03 19:57:46 19° 275° (W) 20:01:40 435.800 - 435.900 CW/SSB, 435.910 FM
Hamsat 30 Sep 19:57:52 20:00:17 15° 274° (W) 20:02:41 145.90 MHz
OPAL 30 Sep 20:23:17 20:27:44 30° 307° (NW) 20:32:06 ?
Oscar 11 30 Sep 20:36:50 20:39:46 18° 54° (NE) 20:42:43 145.825 FM, Beacon 2401.500 USB
KITSAT 1 30 Sep 20:38:12 20:46:11 58° 330° (NNW) 20:54:11 435.175 FM
Sapphire 30 Sep 20:40:18 20:43:57 19° 252° (WSW) 20:47:36 437.095 MHz 1200 baud AX-25 AFSK
HO-68 30 Sep 20:41:25 20:48:27 64° 62° (ENE) 20:55:32 435.675 MHz FM
SO-67 30 Sep 20:53:08 20:55:15 15° 271° (W) 20:57:23 435.3500 MHz FM
SO-50 30 Sep 20:54:40 20:59:01 47° 128° (SE) 21:03:30 436.795 FM
FUNcube-1 30 Sep 21:00:10 21:02:57 16° 51° (NE) 21:05:46 145.950 - 145.970 MHz USB
UKube-1 30 Sep 21:04:36 21:08:32 34° 62° (ENE) 21:12:30 145.840 MHz, 145.915 MHz
Saudisat 1A 30 Sep 21:06:01 21:10:08 36° 22° (NNE) 21:14:14 436.775 MHz
PCSat 30 Sep 21:07:33 21:09:10 11° 258° (WSW) 21:10:47 145.825 MHz
STRAND 1 30 Sep 21:23:44 21:28:47 57° 294° (WNW) 21:33:49 ?
UOSAT-12 30 Sep 21:26:51 21:29:32 15° 112° (ESE) 21:32:14 437.025 FM, 437.400 FM
ZACube-1 30 Sep 21:43:37 21:47:39 31° 61° (ENE) 21:51:43 437.345 MHz
Oscar 11 30 Sep 22:11:02 22:15:25 89° 254° (WSW) 22:19:50 145.825 FM, Beacon 2401.500 USB
HO-68 30 Sep 22:30:00 22:36:35 39° 265° (W) 22:43:14 435.675 MHz FM
FUNcube-1 30 Sep 22:34:03 22:38:37 73° 72° (ENE) 22:43:16 145.950 - 145.970 MHz USB
SO-50 30 Sep 22:35:10 22:39:38 50° 330° (NNW) 22:44:15 436.795 FM
KITSAT 1 30 Sep 22:35:35 22:43:09 41° 357° (N) 22:50:43 435.175 FM
UKube-1 30 Sep 22:40:39 22:44:43 39° 262° (W) 22:48:50 145.840 MHz, 145.915 MHz
Saudisat 1A 30 Sep 22:45:39 22:50:06 78° 224° (SW) 22:54:31 436.775 MHz
STRAND 1 30 Sep 23:04:12 23:07:02 15° 315° (NW) 23:09:52 ?
UOSAT-12 30 Sep 23:04:15 23:08:54 67° 133° (SE) 23:13:37 437.025 FM, 437.400 FM
ZACube-1 30 Sep 23:19:27 23:23:54 49° 261° (W) 23:28:26 437.345 MHz
ISS 30 Sep 23:42:43 23:44:37 14° 147° (SSE) 23:46:31 145.800 FM
Oscar 11 30 Sep 23:49:49 23:52:17 15° 274° (W) 23:54:46 145.825 FM, Beacon 2401.500 USB
AO-40 30 Sep 23:50:09 01:21:12 14° 214° (SSW) 03:25:34 Beacon 2401.320
FUNcube-1 01 Oct 00:12:08 00:15:32 20° 272° (W) 00:18:58 145.950 - 145.970 MHz USB
SO-50 01 Oct 00:17:02 00:21:07 29° 354° (N) 00:25:17 436.795 FM
Saudisat 1A 01 Oct 00:26:11 00:29:03 17° 245° (WSW) 00:31:54 436.775 MHz
KITSAT 1 01 Oct 00:32:20 00:40:15 53° 26° (NNE) 00:48:07 435.175 FM
UOSAT-12 01 Oct 00:44:52 00:49:21 41° 335° (NNW) 00:53:53 437.025 FM, 437.400 FM
ISS 01 Oct 01:17:36 01:20:39 34° 167° (SSE) 01:23:43 145.800 FM
Oscar 16 01 Oct 01:56:53 02:00:26 18° 87° (E) 02:03:57 437.025 USB, Beacon 2401.1428
SO-50 01 Oct 01:58:27 02:02:48 35° 18° (NNE) 02:07:13 436.795 FM
AO-27 01 Oct 02:07:33 02:08:27 10° 80° (E) 02:09:22 436.795 MHz FM
AO-Echo 01 Oct 02:08:46 02:10:52 12° 83° (E) 02:12:59 ?
RS-15 01 Oct 02:17:51 02:26:37 29° 105° (ESE) 02:35:19 29.354 - 29.394 USB, Beacon 29.352 USB
UOSAT-12 01 Oct 02:26:25 02:30:32 28° 359° (N) 02:34:40 437.025 FM, 437.400 FM
JAS-1B 01 Oct 02:28:03 02:32:17 21° 88° (E) 02:36:36 435.800 - 435.900 CW/SSB
KITSAT 1 01 Oct 02:28:06 02:36:11 75° 231° (SW) 02:44:12 435.175 FM
OPAL 01 Oct 02:52:04 02:54:56 15° 41° (NE) 02:57:48 ?
ISS 01 Oct 02:53:50 02:56:59 39° 186° (S) 03:00:07 145.800 FM
Oscar 19 01 Oct 02:54:17 02:59:16 45° 98° (E) 03:04:11 437.125 CW, 437.150 USB
TMSAT-1 01 Oct 02:59:06 03:01:04 12° 81° (E) 03:03:02 436.925 FM
ITAMSAT 1 01 Oct 03:05:53 03:10:25 29° 93° (E) 03:14:55 435.822 SSB
Uribyol 2 01 Oct 03:06:46 03:11:23 30° 93° (E) 03:15:59 436.500 FM
Oscar 16 01 Oct 03:35:19 03:40:33 90° 107° (ESE) 03:45:42 437.025 USB, Beacon 2401.1428
SO-50 01 Oct 03:39:08 03:43:56 84° 41° (NE) 03:48:48 436.795 FM
AO-27 01 Oct 03:44:04 03:49:13 54° 101° (E) 03:54:20 436.795 MHz FM
AO-Echo 01 Oct 03:45:40 03:50:37 65° 103° (ESE) 03:55:41 ?
AO-7 01 Oct 03:48:18 03:51:25 12° 76° (ENE) 03:54:31 29.400 - 29.500 MHz
UOSAT-12 01 Oct 04:07:15 04:11:44 40° 23° (NNE) 04:16:12 437.025 FM, 437.400 FM
Gurwin Techsat 1B 01 Oct 04:08:12 04:13:21 47° 99° (E) 04:18:28 435.225 FM
JAS-1B 01 Oct 04:18:06 04:23:50 81° 290° (WNW) 04:29:42 435.800 - 435.900 CW/SSB
KITSAT 1 01 Oct 04:24:20 04:30:23 24° 255° (WSW) 04:36:25 435.175 FM
RS-15 01 Oct 04:26:23 04:37:18 78° 131° (SE) 04:48:17 29.354 - 29.394 USB, Beacon 29.352 USB
OPAL 01 Oct 04:27:46 04:32:49 52° 62° (ENE) 04:37:53 ?
ISS 01 Oct 04:30:36 04:33:10 21° 206° (SSW) 04:35:44 145.800 FM
Oscar 19 01 Oct 04:33:50 04:38:35 38° 299° (WNW) 04:43:18 437.125 CW, 437.150 USB
TMSAT-1 01 Oct 04:36:53 04:42:10 59° 102° (ESE) 04:47:24 436.925 FM
ITAMSAT 1 01 Oct 04:45:07 04:50:17 60° 293° (WNW) 04:55:26 435.822 SSB
Uribyol 2 01 Oct 04:46:03 04:51:11 57° 294° (WNW) 04:56:18 436.500 FM
Uosat F 01 Oct 05:07:26 05:11:31 24° 91° (E) 05:15:35 435.120 FM
Oscar 16 01 Oct 05:15:26 05:19:20 22° 308° (NW) 05:23:12 437.025 USB, Beacon 2401.1428
SO-50 01 Oct 05:20:13 05:24:04 25° 241° (WSW) 05:27:58 436.795 FM
AO-27 01 Oct 05:23:54 05:28:35 34° 301° (WNW) 05:33:15 436.795 MHz FM
AO-Echo 01 Oct 05:24:58 05:29:06 27° 303° (WNW) 05:33:20 ?
STRAND 1 01 Oct 05:30:54 05:34:38 21° 51° (NE) 05:38:24 ?
AO-7 01 Oct 05:38:33 05:46:33 48° 100° (E) 05:54:30 29.400 - 29.500 MHz
UOSAT-12 01 Oct 05:47:30 05:52:15 74° 226° (SW) 05:56:57 437.025 FM, 437.400 FM
Gurwin Techsat 1B 01 Oct 05:48:23 05:53:17 39° 299° (WNW) 05:58:10 435.225 FM
Hamsat 01 Oct 06:00:02 06:00:51 11° 82° (E) 06:01:40 145.90 MHz
OPAL 01 Oct 06:07:11 06:11:55 34° 262° (W) 06:16:41 ?
JAS-1B 01 Oct 06:09:43 06:13:49 21° 313° (NW) 06:17:54 435.800 - 435.900 CW/SSB
Oscar 19 01 Oct 06:15:25 06:16:40 11° 321° (NW) 06:17:54 437.125 CW, 437.150 USB
TMSAT-1 01 Oct 06:17:12 06:21:52 32° 302° (WNW) 06:26:30 436.925 FM
MaSat-1 01 Oct 06:18:26 06:22:33 29° 113° (ESE) 06:26:26 437.345 MHz
ITAMSAT 1 01 Oct 06:25:47 06:28:52 16° 314° (NW) 06:31:58 435.822 SSB
Uribyol 2 01 Oct 06:26:45 06:29:42 15° 315° (NW) 06:32:39 436.500 FM
RS-15 01 Oct 06:39:36 06:50:23 60° 341° (NNW) 07:01:22 29.354 - 29.394 USB, Beacon 29.352 USB
Uosat F 01 Oct 06:45:46 06:50:48 68° 291° (WNW) 06:55:48 435.120 FM
JAS-2 01 Oct 06:50:43 06:56:50 44° 97° (E) 07:03:39 435.800 - 435.900 CW/SSB, 435.910 FM
STRAND 1 01 Oct 07:08:06 07:13:13 86° 72° (ENE) 07:18:23 ?
UOSAT-12 01 Oct 07:28:41 07:31:42 17° 246° (WSW) 07:34:42 437.025 FM, 437.400 FM
Gurwin Techsat 1B 01 Oct 07:30:23 07:31:57 11° 321° (NW) 07:33:31 435.225 FM
AO-7 01 Oct 07:31:32 07:39:37 59° 303° (WNW) 07:47:42 29.400 - 29.500 MHz
Hamsat 01 Oct 07:33:27 07:37:41 68° 103° (ESE) 07:41:51 145.90 MHz
MaSat-1 01 Oct 07:54:09 07:58:52 61° 312° (NW) 08:03:11 437.345 MHz
SO-67 01 Oct 08:07:47 08:10:45 25° 94° (E) 08:13:40 435.3500 MHz FM
Uosat F 01 Oct 08:25:37 08:28:48 17° 312° (NW) 08:31:58 435.120 FM
JAS-2 01 Oct 08:35:57 08:42:03 53° 296° (WNW) 08:48:55 435.800 - 435.900 CW/SSB, 435.910 FM
STRAND 1 01 Oct 08:49:32 08:53:08 19° 273° (W) 08:56:45 ?
RS-15 01 Oct 08:53:59 09:04:46 57° 14° (NNE) 09:15:50 29.354 - 29.394 USB, Beacon 29.352 USB
Hamsat 01 Oct 09:10:05 09:13:16 21° 303° (WNW) 09:16:25 145.90 MHz
AO-7 01 Oct 09:24:44 09:30:59 25° 328° (NNW) 09:37:15 29.400 - 29.500 MHz
MaSat-1 01 Oct 09:32:42 09:36:05 20° 332° (NNW) 09:39:15 437.345 MHz
SO-67 01 Oct 09:40:40 09:43:50 34° 293° (WNW) 09:46:59 435.3500 MHz FM
Sapphire 01 Oct 09:46:33 09:50:23 20° 109° (ESE) 09:54:14 437.095 MHz 1200 baud AX-25 AFSK
HO-68 01 Oct 09:48:28 09:54:49 32° 92° (E) 10:01:08 435.675 MHz FM
Oscar 11 01 Oct 09:53:26 09:54:34 11° 83° (E) 09:55:41 145.825 FM, Beacon 2401.500 USB
PCSat 01 Oct 10:10:59 10:15:40 30° 115° (ESE) 10:20:22 145.825 MHz
